Miscellaneous Local Product
Issued by NWS Hastings, NE

Home | Current Version | Previous Version | Graphics & Text | Print | Product List | Glossary On
Versions: 1 2 3 4 5 6 7 8 9 10 11 12 13 14 15 16 17 18 19 20 21 22 23 24 25 26 27 28 29 30 31 32 33 34 35 36 37 38 39 40 41 42 43 44 45 46 47 48 49 50
000
AXUS43 KGID 271902
MISGRI

GID CWA HOURLY WEATHER ROUNDUP
NATIONAL WEATHER SERVICE HASTINGS NE
200 PM CDT WED AUG 27 2014

NOTE: "FAIR" INDICATES FEW OR NO CLOUDS BELOW 12,000 FEET WITH NO
SIGNIFICANT WEATHER AND/OR OBSTRUCTIONS TO VISIBILITY.

...SOUTH CENTRAL NEBRASKA...

CITY           SKY/WX    TMP DP  RH WIND       PRES   REMARKS
GRAND ISLAND   PTSUNNY   74  68  81 SE8       30.12F
HASTINGS       CLOUDY    77  66  68 E13G20    30.12F
KEARNEY        PTSUNNY   75  68  78 E16       30.13F
ORD            CLOUDY    70  65  84 SE12      30.12F
YORK           CLOUDY    75 N/A N/A SE12      30.12F
AURORA         PTSUNNY   77  71  81 SE10      30.12F
LEXINGTON      CLOUDY    72  69  89 E12G17    30.13F
HOLDREGE       PTSUNNY   75  69  81 E13       30.12F
HEBRON         CLOUDY    78  68  70 SE6       30.11F

...NEBRASKA PANHANDLE...

CITY           SKY/WX    TMP DP  RH WIND       PRES   REMARKS
CHADRON        CLOUDY    75  62  64 N9        30.08F
ALLIANCE       CLOUDY    76  60  57 SE14      30.09F
SCOTTSBLUFF    TSTM      60  60 100 NW20G25   30.13S VSB 1/4
SIDNEY         PTSUNNY   77  58  51 S7G17     30.12F

...WESTERN AND NORTH CENTRAL NEBRASKA...

CITY           SKY/WX    TMP DP  RH WIND       PRES   REMARKS
VALENTINE      CLOUDY    75  67  76 NE13      30.10F
AINSWORTH      CLOUDY    71  65  82 SE14      30.13S
ONEILL         CLOUDY    72  68  88 SE9       30.13F
BROKEN BOW     CLOUDY    72  67  84 SE13      30.13F
IMPERIAL       LGT RAIN  75  65  70 SE16      30.09F
NORTH PLATTE   CLOUDY    73  67  81 E16       30.11F
MCCOOK         CLOUDY    78  66  66 SE10      30.09F

...EASTERN NEBRASKA...

CITY           SKY/WX    TMP DP  RH WIND       PRES   REMARKS
NORFOLK        CLOUDY    71  67  87 SE8       30.12F
SO SIOUX CITY  LGT RAIN  69  67  93 SE9       30.13S
TEKAMAH        LGT RAIN  72  68  87 S14       30.12F
COLUMBUS       CLOUDY    72  66  83 SE8       30.13F
ALBION         CLOUDY    71  67  85 SE8       30.11F
OMAHA EPPLEY   RAIN      70  68  93 S13       30.13F FOG
OFFUTT AFB     HVY RAIN  70  70 100 SE5       30.15F FOG
MILLARD        LGT RAIN  70  68  94 SE8       30.12F
LINCOLN        CLOUDY    72  69  90 E13       30.14F
NEBRASKA CITY  CLOUDY    71  71 100 E5        30.14S
BEATRICE       CLOUDY    78  72  80 CALM      30.12S
FALLS CITY     CLOUDY    74  70  87 E8        30.12F

...NORTHERN KANSAS...

CITY           SKY/WX    TMP DP  RH WIND       PRES   REMARKS
GOODLAND       PTSUNNY   76  64  66 S13       30.11F
HILL CITY      CLOUDY    82  64  54 SE13      30.08F
NORTON         MOCLDY    82  57  42 SE10      30.08F
PHILLIPSBURG   RAIN      81  64  57 E10       30.08F
SMITH CENTER   DRIZZLE   75  70  83 SE6       30.10R
BELOIT         CLOUDY    81  72  74 E3        30.08S
HAYS           MOSUNNY   81  64  57 SE16      30.09F
RUSSELL        PTSUNNY   80  65  59 E10       30.09F
CONCORDIA      CLOUDY    79  74  84 E7        30.10F
SALINA         CLOUDY    87  65  47 VRB3      30.09F
TOPEKA         SUNNY     88  73  61 E12       30.09F HX  95



USA.gov is the U.S. government's official web portal to all federal, state and local government web resources and services.